Time,TemperatureF,DewpointF,PressureIn,WindDirection,WindDirectionDegrees,WindSpeedMPH,WindSpeedGustMPH,Humidity,HourlyPrecipIn,Conditions,Clouds,dailyrainin,SoftwareType,DateUTC
2013-03-08 00:02:00,43.7,19.8,29.68,ESE,112,2.7,4.0,38,0.00,,---,0.00,VWS V14.01,2013-03-08 06:02:00,
2013-03-08 00:07:00,43.5,19.6,29.68,ESE,112,3.4,4.9,38,0.00,,---,0.00,VWS V14.01,2013-03-08 06:07:00,
2013-03-08 00:12:00,43.5,19.6,29.68,ESE,112,2.0,2.5,38,0.00,,---,0.00,VWS V14.01,2013-03-08 06:12:00,
2013-03-08 00:17:00,43.3,20.1,29.68,East,90,1.3,4.0,39,0.00,,---,0.00,VWS V14.01,2013-03-08 06:17:00,
2013-03-08 00:22:00,43.0,19.7,29.68,ESE,112,1.6,4.0,39,0.00,,---,0.00,VWS V14.01,2013-03-08 06:22:00,
2013-03-08 00:27:00,43.0,19.7,29.68,ESE,112,1.3,3.8,39,0.00,,---,0.00,VWS V14.01,2013-03-08 06:27:00,
2013-03-08 00:32:00,42.8,19.6,29.68,ESE,112,0.0,2.0,39,0.00,,---,0.00,VWS V14.01,2013-03-08 06:32:00,
2013-03-08 00:37:00,42.8,19.6,29.68,East,90,2.2,4.9,39,0.00,,---,0.00,VWS V14.01,2013-03-08 06:37:00,
2013-03-08 00:42:00,43.0,19.7,29.68,ENE,68,1.6,2.9,39,0.00,,---,0.00,VWS V14.01,2013-03-08 06:42:00,
2013-03-08 00:47:00,43.0,20.3,29.65,ENE,68,2.9,4.5,40,0.00,,---,0.00,VWS V14.01,2013-03-08 06:47:00,
2013-03-08 00:52:00,43.2,20.5,29.65,East,90,1.3,4.3,40,0.00,,---,0.00,VWS V14.01,2013-03-08 06:52:00,
2013-03-08 00:57:00,43.3,20.6,29.65,ESE,112,2.0,4.3,40,0.00,,---,0.00,VWS V14.01,2013-03-08 06:57:00,
2013-03-08 01:02:00,43.2,20.5,29.65,ENE,68,2.5,4.3,40,0.00,,---,0.00,VWS V14.01,2013-03-08 07:02:00,
2013-03-08 01:07:00,43.2,20.5,29.65,SE,135,3.1,4.9,40,0.00,,---,0.00,VWS V14.01,2013-03-08 07:07:00,
2013-03-08 01:12:00,43.2,20.5,29.65,ESE,112,3.4,9.8,40,0.00,,---,0.00,VWS V14.01,2013-03-08 07:12:00,
2013-03-08 01:17:00,43.7,21.0,29.65,ESE,112,3.6,7.6,40,0.00,,---,0.00,VWS V14.01,2013-03-08 07:17:00,
2013-03-08 01:22:00,43.7,21.0,29.65,SSE,158,2.9,5.8,40,0.00,,---,0.00,VWS V14.01,2013-03-08 07:22:00,
2013-03-08 01:27:00,43.9,21.1,29.65,ESE,112,3.6,3.8,40,0.00,,---,0.00,VWS V14.01,2013-03-08 07:27:00,
2013-03-08 01:33:00,44.1,21.3,29.68,SE,135,0.0,3.6,40,0.00,,---,0.00,VWS V14.01,2013-03-08 07:33:00,
2013-03-08 01:38:00,44.1,21.3,29.68,North,0,2.7,3.1,40,0.00,,---,0.00,VWS V14.01,2013-03-08 07:38:00,
2013-03-08 01:43:00,43.9,21.1,29.68,NW,315,4.3,4.3,40,0.00,,---,0.00,VWS V14.01,2013-03-08 07:43:00,
2013-03-08 01:48:00,43.7,21.0,29.65,NE,45,1.1,2.2,40,0.00,,---,0.00,VWS V14.01,2013-03-08 07:48:00,
2013-03-08 01:53:00,43.7,20.4,29.65,NNE,22,2.5,6.0,39,0.00,,---,0.00,VWS V14.01,2013-03-08 07:53:00,
2013-03-08 01:58:00,43.5,20.8,29.65,ESE,112,2.9,2.9,40,0.00,,---,0.00,VWS V14.01,2013-03-08 07:58:00,
2013-03-08 02:03:00,43.3,20.6,29.68,ENE,68,2.5,2.7,40,0.00,,---,0.00,VWS V14.01,2013-03-08 08:03:00,
2013-03-08 02:08:00,43.3,20.6,29.68,NE,45,2.2,3.1,40,0.00,,---,0.00,VWS V14.01,2013-03-08 08:08:00,
2013-03-08 02:13:00,43.2,20.5,29.68,NE,45,2.0,3.1,40,0.00,,---,0.00,VWS V14.01,2013-03-08 08:13:00,
2013-03-08 02:18:00,42.8,20.2,29.68,North,0,2.5,3.8,40,0.00,,---,0.00,VWS V14.01,2013-03-08 08:18:00,
2013-03-08 02:23:00,42.8,20.2,29.68,ESE,112,1.6,2.2,40,0.00,,---,0.00,VWS V14.01,2013-03-08 08:23:00,
2013-03-08 02:28:00,42.8,20.2,29.68,NE,45,2.0,3.6,40,0.00,,---,0.00,VWS V14.01,2013-03-08 08:28:00,
2013-03-08 02:33:00,42.6,20.6,29.65,East,90,1.1,4.0,41,0.00,,---,0.00,VWS V14.01,2013-03-08 08:33:00,
2013-03-08 02:38:00,42.4,20.4,29.65,ENE,68,3.4,3.4,41,0.00,,---,0.00,VWS V14.01,2013-03-08 08:38:00,
2013-03-08 02:43:00,42.4,20.4,29.65,ENE,68,2.0,4.3,41,0.00,,---,0.00,VWS V14.01,2013-03-08 08:43:00,
2013-03-08 02:48:00,42.3,20.3,29.71,NE,45,0.9,5.8,41,0.00,,---,0.00,VWS V14.01,2013-03-08 08:48:00,
2013-03-08 02:53:00,42.3,20.3,29.71,ESE,112,2.5,4.3,41,0.00,,---,0.00,VWS V14.01,2013-03-08 08:53:00,
2013-03-08 02:58:00,42.1,20.1,29.71,ESE,112,2.2,4.0,41,0.00,,---,0.00,VWS V14.01,2013-03-08 08:58:00,
2013-03-08 03:03:00,42.1,20.1,29.68,SE,135,0.0,3.1,41,0.00,,---,0.00,VWS V14.01,2013-03-08 09:03:00,
2013-03-08 03:08:00,41.7,19.8,29.68,SE,135,0.0,0.0,41,0.00,,---,0.00,VWS V14.01,2013-03-08 09:08:00,
2013-03-08 03:13:00,41.4,20.0,29.68,East,90,0.0,1.6,42,0.00,,---,0.00,VWS V14.01,2013-03-08 09:13:00,
2013-03-08 03:18:00,41.2,19.9,29.65,ENE,68,0.0,2.2,42,0.00,,---,0.00,VWS V14.01,2013-03-08 09:18:00,
2013-03-08 03:23:00,41.0,20.2,29.65,ENE,68,1.3,2.0,43,0.00,,---,0.00,VWS V14.01,2013-03-08 09:23:00,
2013-03-08 03:28:00,40.6,21.0,29.65,NNE,22,1.1,2.7,45,0.00,,---,0.00,VWS V14.01,2013-03-08 09:28:00,
2013-03-08 03:33:00,40.3,20.6,29.68,NNE,22,1.1,1.3,45,0.00,,---,0.00,VWS V14.01,2013-03-08 09:33:00,
2013-03-08 03:38:00,39.7,20.1,29.68,NNE,22,0.0,0.9,45,0.00,,---,0.00,VWS V14.01,2013-03-08 09:38:00,
2013-03-08 03:43:00,39.6,20.5,29.68,NNW,338,0.9,1.3,46,0.00,,---,0.00,VWS V14.01,2013-03-08 09:43:00,
2013-03-08 03:48:00,39.4,19.8,29.68,NNW,338,0.0,0.0,45,0.00,,---,0.00,VWS V14.01,2013-03-08 09:48:00,
2013-03-08 03:53:00,39.0,20.0,29.68,NNW,338,0.0,0.0,46,0.00,,---,0.00,VWS V14.01,2013-03-08 09:53:00,
2013-03-08 03:58:00,38.8,19.8,29.68,NNE,22,0.0,2.0,46,0.00,,---,0.00,VWS V14.01,2013-03-08 09:58:00,
2013-03-08 04:03:00,38.7,21.2,29.68,NNE,22,0.0,0.0,49,0.00,,---,0.00,VWS V14.01,2013-03-08 10:03:00,
2013-03-08 04:08:00,38.5,21.0,29.68,NNE,22,1.3,1.6,49,0.00,,---,0.00,VWS V14.01,2013-03-08 10:08:00,
2013-03-08 04:13:00,38.3,20.4,29.68,ENE,68,2.2,2.2,48,0.00,,---,0.00,VWS V14.01,2013-03-08 10:13:00,
2013-03-08 04:18:00,38.1,20.7,29.68,SE,135,0.0,0.0,49,0.00,,---,0.00,VWS V14.01,2013-03-08 10:18:00,
2013-03-08 04:23:00,38.1,21.1,29.68,NNE,22,1.3,1.6,50,0.00,,---,0.00,VWS V14.01,2013-03-08 10:23:00,
2013-03-08 04:29:00,38.1,20.7,29.68,East,90,0.0,1.6,49,0.00,,---,0.00,VWS V14.01,2013-03-08 10:29:00,
2013-03-08 04:34:00,37.9,21.0,29.71,East,90,1.6,2.2,50,0.00,,---,0.00,VWS V14.01,2013-03-08 10:34:00,
2013-03-08 04:39:00,37.8,21.3,29.71,NE,45,1.1,1.1,51,0.00,,---,0.00,VWS V14.01,2013-03-08 10:39:00,
2013-03-08 04:44:00,37.8,20.8,29.71,NE,45,2.0,2.0,50,0.00,,---,0.00,VWS V14.01,2013-03-08 10:44:00,
2013-03-08 04:49:00,37.6,21.6,29.71,NE,45,0.0,0.0,52,0.00,,---,0.00,VWS V14.01,2013-03-08 10:49:00,
2013-03-08 04:54:00,37.4,20.5,29.71,NE,45,0.0,0.0,50,0.00,,---,0.00,VWS V14.01,2013-03-08 10:54:00,
2013-03-08 04:59:00,37.2,20.8,29.71,NE,45,1.1,1.1,51,0.00,,---,0.00,VWS V14.01,2013-03-08 10:59:00,
2013-03-08 05:04:00,37.0,20.6,29.71,NE,45,1.1,1.3,51,0.00,,---,0.00,VWS V14.01,2013-03-08 11:04:00,
2013-03-08 05:09:00,37.0,21.5,29.71,NE,45,1.3,1.3,53,0.00,,---,0.00,VWS V14.01,2013-03-08 11:09:00,
2013-03-08 05:14:00,37.0,21.5,29.71,NE,45,0.0,0.0,53,0.00,,---,0.00,VWS V14.01,2013-03-08 11:14:00,
2013-03-08 05:19:00,36.7,20.3,29.71,NE,45,0.0,0.0,51,0.00,,---,0.00,VWS V14.01,2013-03-08 11:19:00,
2013-03-08 05:24:00,36.5,20.1,29.71,NE,45,0.0,0.0,51,0.00,,---,0.00,VWS V14.01,2013-03-08 11:24:00,
2013-03-08 05:29:00,36.3,20.4,29.71,NE,45,0.0,0.0,52,0.00,,---,0.00,VWS V14.01,2013-03-08 11:29:00,
2013-03-08 05:34:00,36.3,20.8,29.71,NE,45,0.0,0.0,53,0.00,,---,0.00,VWS V14.01,2013-03-08 11:34:00,
2013-03-08 05:39:00,36.3,20.8,29.71,East,90,0.0,0.0,53,0.00,,---,0.00,VWS V14.01,2013-03-08 11:39:00,
2013-03-08 05:44:00,36.3,21.3,29.71,East,90,0.0,0.9,54,0.00,,---,0.00,VWS V14.01,2013-03-08 11:44:00,
2013-03-08 05:49:00,36.3,20.8,29.74,East,90,1.1,1.1,53,0.00,,---,0.00,VWS V14.01,2013-03-08 11:49:00,
2013-03-08 05:54:00,36.3,21.7,29.74,East,90,1.3,1.6,55,0.00,,---,0.00,VWS V14.01,2013-03-08 11:54:00,
2013-03-08 05:59:00,36.5,21.0,29.74,East,90,0.0,1.3,53,0.00,,---,0.00,VWS V14.01,2013-03-08 11:59:00,
2013-03-08 06:04:00,36.3,20.8,29.74,East,90,0.0,0.0,53,0.00,,---,0.00,VWS V14.01,2013-03-08 12:04:00,
2013-03-08 06:09:00,36.3,20.8,29.74,East,90,0.0,0.0,53,0.00,,---,0.00,VWS V14.01,2013-03-08 12:09:00,
2013-03-08 06:15:00,36.1,22.4,29.74,WSW,248,0.9,2.2,57,0.00,,---,0.00,VWS V14.01,2013-03-08 12:15:00,
2013-03-08 06:20:00,36.1,22.0,29.74,West,270,0.9,1.1,56,0.00,,---,0.00,VWS V14.01,2013-03-08 12:20:00,
2013-03-08 06:25:00,36.0,22.2,29.74,NNW,338,0.0,0.9,57,0.00,,---,0.00,VWS V14.01,2013-03-08 12:25:00,
2013-03-08 06:30:00,36.0,22.2,29.74,NNW,338,0.9,1.6,57,0.00,,---,0.00,VWS V14.01,2013-03-08 12:30:00,
2013-03-08 06:35:00,35.8,22.0,29.74,NNW,338,0.0,1.6,57,0.00,,---,0.00,VWS V14.01,2013-03-08 12:35:00,
2013-03-08 06:40:00,35.8,22.5,29.74,East,90,0.0,0.9,58,0.00,,---,0.00,VWS V14.01,2013-03-08 12:40:00,
2013-03-08 06:45:00,35.8,22.0,29.74,East,90,0.0,1.1,57,0.00,,---,0.00,VWS V14.01,2013-03-08 12:45:00,
2013-03-08 06:50:00,36.0,21.8,29.71,East,90,0.0,0.0,56,0.00,,---,0.00,VWS V14.01,2013-03-08 12:50:00,
2013-03-08 06:55:00,36.0,22.2,29.71,East,90,0.0,0.0,57,0.00,,---,0.00,VWS V14.01,2013-03-08 12:55:00,
2013-03-08 07:00:00,36.0,22.6,29.71,East,90,1.1,2.0,58,0.00,,---,0.00,VWS V14.01,2013-03-08 13:00:00,
2013-03-08 07:05:00,36.0,23.4,29.71,ENE,68,3.1,3.1,60,0.00,,---,0.00,VWS V14.01,2013-03-08 13:05:00,
2013-03-08 07:10:00,36.1,23.2,29.71,ENE,68,1.3,2.0,59,0.00,,---,0.00,VWS V14.01,2013-03-08 13:10:00,
2013-03-08 07:15:00,36.3,23.4,29.71,WNW,292,1.1,2.5,59,0.00,,---,0.00,VWS V14.01,2013-03-08 13:15:00,
2013-03-08 07:20:00,36.3,23.0,29.71,East,90,0.0,1.1,58,0.00,,---,0.00,VWS V14.01,2013-03-08 13:20:00,
2013-03-08 07:25:00,36.5,22.7,29.71,East,90,0.0,0.9,57,0.00,,---,0.00,VWS V14.01,2013-03-08 13:25:00,
2013-03-08 07:30:00,36.7,23.3,29.71,East,90,2.0,3.6,58,0.00,,---,0.00,VWS V14.01,2013-03-08 13:30:00,
2013-03-08 07:35:00,37.2,23.8,29.71,ENE,68,2.7,3.4,58,0.00,,---,0.00,VWS V14.01,2013-03-08 13:35:00,
2013-03-08 07:40:00,38.3,24.0,29.71,ESE,112,4.0,4.0,56,0.00,,---,0.00,VWS V14.01,2013-03-08 13:40:00,
2013-03-08 07:45:00,39.6,23.9,29.71,ENE,68,3.4,4.9,53,0.00,,---,0.00,VWS V14.01,2013-03-08 13:45:00,
2013-03-08 07:50:00,40.8,23.6,29.74,ENE,68,6.3,6.3,50,0.00,,---,0.00,VWS V14.01,2013-03-08 13:50:00,
2013-03-08 07:55:00,41.5,23.3,29.74,ESE,112,4.0,4.9,48,0.00,,---,0.00,VWS V14.01,2013-03-08 13:55:00,
2013-03-08 08:00:00,42.4,23.1,29.74,ESE,112,4.9,4.9,46,0.00,,---,0.00,VWS V14.01,2013-03-08 14:00:00,
2013-03-08 08:05:00,43.0,22.6,29.74,ESE,112,4.0,5.4,44,0.00,,---,0.00,VWS V14.01,2013-03-08 14:05:00,
2013-03-08 08:11:00,43.5,22.0,29.74,ESE,112,2.9,3.6,42,0.00,,---,0.00,VWS V14.01,2013-03-08 14:11:00,
2013-03-08 08:16:00,44.1,21.9,29.74,East,90,3.8,6.0,41,0.00,,---,0.00,VWS V14.01,2013-03-08 14:16:00,
2013-03-08 08:21:00,44.2,20.9,29.71,ENE,68,6.5,6.5,39,0.00,,---,0.00,VWS V14.01,2013-03-08 14:21:00,
2013-03-08 08:26:00,44.6,21.2,29.71,ESE,112,9.6,9.6,39,0.00,,---,0.00,VWS V14.01,2013-03-08 14:26:00,
2013-03-08 08:31:00,44.6,21.2,29.74,ESE,112,4.3,7.2,39,0.00,,---,0.00,VWS V14.01,2013-03-08 14:31:00,
2013-03-08 08:36:00,45.0,20.9,29.74,ENE,68,7.6,8.5,38,0.00,,---,0.00,VWS V14.01,2013-03-08 14:36:00,
2013-03-08 08:41:00,45.3,21.8,29.74,ESE,112,2.5,6.0,39,0.00,,---,0.00,VWS V14.01,2013-03-08 14:41:00,
2013-03-08 08:46:00,45.7,21.5,29.74,East,90,2.9,6.0,38,0.00,,---,0.00,VWS V14.01,2013-03-08 14:46:00,
2013-03-08 08:51:00,46.2,22.0,29.74,ESE,112,4.3,4.3,38,0.00,,---,0.00,VWS V14.01,2013-03-08 14:51:00,
2013-03-08 08:56:00,46.9,22.7,29.74,East,90,5.6,5.6,38,0.00,,---,0.00,VWS V14.01,2013-03-08 14:56:00,
2013-03-08 09:01:00,47.5,22.5,29.71,ESE,112,5.6,7.6,37,0.00,,---,0.00,VWS V14.01,2013-03-08 15:01:00,
2013-03-08 09:06:00,47.7,22.7,29.71,NE,45,4.0,8.1,37,0.00,,---,0.00,VWS V14.01,2013-03-08 15:06:00,
2013-03-08 09:11:00,47.8,22.2,29.71,ESE,112,4.0,7.6,36,0.00,,---,0.00,VWS V14.01,2013-03-08 15:11:00,
2013-03-08 09:16:00,48.4,22.0,29.76,ESE,112,3.4,4.3,35,0.00,,---,0.00,VWS V14.01,2013-03-08 15:16:00,
2013-03-08 09:21:00,48.6,20.8,29.76,East,90,5.6,8.1,33,0.00,,---,0.00,VWS V14.01,2013-03-08 15:21:00,
2013-03-08 09:26:00,48.6,20.8,29.76,East,90,2.7,6.5,33,0.00,,---,0.00,VWS V14.01,2013-03-08 15:26:00,
2013-03-08 09:31:00,48.7,20.9,29.74,ESE,112,4.9,6.9,33,0.00,,---,0.00,VWS V14.01,2013-03-08 15:31:00,
2013-03-08 09:36:00,49.3,21.4,29.74,SE,135,4.3,4.5,33,0.00,,---,0.00,VWS V14.01,2013-03-08 15:36:00,
2013-03-08 09:42:00,49.8,21.2,29.74,ESE,112,4.3,6.7,32,0.00,,---,0.00,VWS V14.01,2013-03-08 15:42:00,
2013-03-08 09:47:00,50.2,21.5,29.74,East,90,3.8,8.5,32,0.00,,---,0.00,VWS V14.01,2013-03-08 15:47:00,
2013-03-08 09:52:00,50.7,21.2,29.74,East,90,7.8,7.8,31,0.00,,---,0.00,VWS V14.01,2013-03-08 15:52:00,
2013-03-08 09:57:00,51.1,21.5,29.74,SSE,158,4.0,5.6,31,0.00,,---,0.00,VWS V14.01,2013-03-08 15:57:00,
2013-03-08 10:02:00,51.8,21.4,29.74,SE,135,7.8,7.8,30,0.00,,---,0.00,VWS V14.01,2013-03-08 16:02:00,
2013-03-08 10:07:00,52.0,20.7,29.74,East,90,4.3,5.8,29,0.00,,---,0.00,VWS V14.01,2013-03-08 16:07:00,
2013-03-08 10:12:00,52.2,20.9,29.74,ENE,68,3.6,7.6,29,0.00,,---,0.00,VWS V14.01,2013-03-08 16:12:00,
2013-03-08 10:17:00,52.7,21.4,29.74,East,90,5.6,7.2,29,0.00,,---,0.00,VWS V14.01,2013-03-08 16:17:00,
2013-03-08 10:22:00,53.1,20.8,29.74,ESE,112,4.3,7.6,28,0.00,,---,0.00,VWS V14.01,2013-03-08 16:22:00,
2013-03-08 10:27:00,53.4,21.1,29.74,ESE,112,3.6,6.5,28,0.00,,---,0.00,VWS V14.01,2013-03-08 16:27:00,
2013-03-08 10:32:00,53.8,21.5,29.74,ESE,112,4.9,7.6,28,0.00,,---,0.00,VWS V14.01,2013-03-08 16:32:00,
2013-03-08 10:37:00,54.3,21.1,29.74,SSE,158,8.1,9.0,27,0.00,,---,0.00,VWS V14.01,2013-03-08 16:37:00,
2013-03-08 10:42:00,54.1,20.9,29.74,ESE,112,3.6,10.1,27,0.00,,---,0.00,VWS V14.01,2013-03-08 16:42:00,
2013-03-08 10:47:00,54.3,21.1,29.74,ENE,68,5.6,9.6,27,0.00,,---,0.00,VWS V14.01,2013-03-08 16:47:00,
2013-03-08 10:52:00,54.9,21.5,29.74,ENE,68,3.8,7.6,27,0.00,,---,0.00,VWS V14.01,2013-03-08 16:52:00,
2013-03-08 10:57:00,55.9,21.6,29.74,SE,135,5.4,5.8,26,0.00,,---,0.00,VWS V14.01,2013-03-08 16:57:00,
2013-03-08 11:02:00,56.3,21.9,29.74,East,90,4.9,7.6,26,0.00,,---,0.00,VWS V14.01,2013-03-08 17:02:00,
2013-03-08 11:07:00,56.3,22.8,29.74,NE,45,2.9,9.6,27,0.00,,---,0.00,VWS V14.01,2013-03-08 17:07:00,
2013-03-08 11:12:00,56.7,22.2,29.74,East,90,8.5,8.7,26,0.00,,---,0.00,VWS V14.01,2013-03-08 17:12:00,
2013-03-08 11:17:00,56.3,21.9,29.74,ESE,112,2.5,7.4,26,0.00,,---,0.00,VWS V14.01,2013-03-08 17:17:00,
2013-03-08 11:23:00,56.5,22.0,29.74,SSE,158,4.0,6.3,26,0.00,,---,0.00,VWS V14.01,2013-03-08 17:23:00,
2013-03-08 11:28:00,57.0,22.5,29.74,East,90,3.8,5.4,26,0.00,,---,0.00,VWS V14.01,2013-03-08 17:28:00,
2013-03-08 11:33:00,57.6,22.0,29.74,ESE,112,3.8,6.3,25,0.00,,---,0.00,VWS V14.01,2013-03-08 17:33:00,
2013-03-08 11:38:00,57.7,22.2,29.74,ESE,112,5.4,6.3,25,0.00,,---,0.00,VWS V14.01,2013-03-08 17:38:00,
2013-03-08 11:43:00,58.1,22.5,29.74,ESE,112,5.8,5.8,25,0.00,,---,0.00,VWS V14.01,2013-03-08 17:43:00,
2013-03-08 11:48:00,57.9,22.3,29.71,ESE,112,2.9,7.2,25,0.00,,---,0.00,VWS V14.01,2013-03-08 17:48:00,
2013-03-08 11:53:00,59.0,23.2,29.71,NE,45,1.6,4.9,25,0.00,,---,0.00,VWS V14.01,2013-03-08 17:53:00,
2013-03-08 11:58:00,58.8,23.1,29.71,East,90,7.8,7.8,25,0.00,,---,0.00,VWS V14.01,2013-03-08 17:58:00,
2013-03-08 12:03:00,58.3,22.6,29.71,SSE,158,3.1,8.5,25,0.00,,---,0.00,VWS V14.01,2013-03-08 18:03:00,
2013-03-08 12:08:00,58.8,23.1,29.71,East,90,4.0,5.8,25,0.00,,---,0.00,VWS V14.01,2013-03-08 18:08:00,
2013-03-08 12:13:00,59.0,22.3,29.71,ENE,68,6.0,6.5,24,0.00,,---,0.00,VWS V14.01,2013-03-08 18:13:00,
2013-03-08 12:18:00,59.0,22.3,29.68,ESE,112,3.6,6.3,24,0.00,,---,0.00,VWS V14.01,2013-03-08 18:18:00,
2013-03-08 12:23:00,59.5,23.7,29.68,East,90,5.4,6.5,25,0.00,,---,0.00,VWS V14.01,2013-03-08 18:23:00,
2013-03-08 12:28:00,59.4,23.6,29.68,East,90,8.7,8.7,25,0.00,,---,0.00,VWS V14.01,2013-03-08 18:28:00,
2013-03-08 12:33:00,59.5,22.7,29.68,SSE,158,3.6,6.5,24,0.00,,---,0.00,VWS V14.01,2013-03-08 18:33:00,
2013-03-08 12:38:00,59.7,22.9,29.68,SSE,158,6.5,6.5,24,0.00,,---,0.00,VWS V14.01,2013-03-08 18:38:00,
2013-03-08 12:43:00,60.1,23.2,29.68,ESE,112,0.9,6.5,24,0.00,,---,0.00,VWS V14.01,2013-03-08 18:43:00,
2013-03-08 12:48:00,59.9,23.0,29.68,WSW,248,3.1,7.6,24,0.00,,---,0.00,VWS V14.01,2013-03-08 18:48:00,
2013-03-08 12:53:00,60.1,23.2,29.68,SSW,202,5.6,6.5,24,0.00,,---,0.00,VWS V14.01,2013-03-08 18:53:00,
2013-03-08 12:58:00,60.1,23.2,29.68,SE,135,2.5,7.6,24,0.00,,---,0.00,VWS V14.01,2013-03-08 18:58:00,
2013-03-08 13:03:00,60.1,23.2,29.68,ENE,68,3.4,8.7,24,0.00,,---,0.00,VWS V14.01,2013-03-08 19:03:00,
2013-03-08 13:08:00,60.4,23.5,29.68,SSW,202,2.9,7.4,24,0.00,,---,0.00,VWS V14.01,2013-03-08 19:08:00,
2013-03-08 13:14:00,60.4,23.5,29.68,NNE,22,2.0,5.6,24,0.00,,---,0.00,VWS V14.01,2013-03-08 19:14:00,
2013-03-08 13:19:00,61.0,24.0,29.71,SSE,158,3.4,3.4,24,0.00,,---,0.00,VWS V14.01,2013-03-08 19:19:00,
2013-03-08 13:24:00,60.4,23.5,29.71,ESE,112,4.0,4.0,24,0.00,,---,0.00,VWS V14.01,2013-03-08 19:24:00,
2013-03-08 13:29:00,60.4,23.5,29.71,ENE,68,4.0,4.0,24,0.00,,---,0.00,VWS V14.01,2013-03-08 19:29:00,
2013-03-08 13:34:00,60.4,23.5,29.65,SSE,158,5.8,5.8,24,0.00,,---,0.00,VWS V14.01,2013-03-08 19:34:00,
2013-03-08 13:39:00,61.0,24.0,29.65,ENE,68,3.1,3.1,24,0.00,,---,0.00,VWS V14.01,2013-03-08 19:39:00,
2013-03-08 13:44:00,60.8,23.8,29.65,SSE,158,2.5,5.4,24,0.00,,---,0.00,VWS V14.01,2013-03-08 19:44:00,
2013-03-08 13:49:00,61.0,24.0,29.62,SSE,158,3.6,4.9,24,0.00,,---,0.00,VWS V14.01,2013-03-08 19:49:00,
2013-03-08 13:54:00,60.8,23.8,29.62,ENE,68,7.6,9.6,24,0.00,,---,0.00,VWS V14.01,2013-03-08 19:54:00,
2013-03-08 13:59:00,60.8,23.8,29.62,East,90,3.1,4.9,24,0.00,,---,0.00,VWS V14.01,2013-03-08 19:59:00,
2013-03-08 14:04:00,60.6,23.6,29.62,East,90,5.8,5.8,24,0.00,,---,0.00,VWS V14.01,2013-03-08 20:04:00,
2013-03-08 14:09:00,60.6,23.6,29.62,ENE,68,3.4,6.0,24,0.00,,---,0.00,VWS V14.01,2013-03-08 20:09:00,
2013-03-08 14:14:00,60.6,23.6,29.62,ENE,68,3.8,5.4,24,0.00,,---,0.00,VWS V14.01,2013-03-08 20:14:00,
2013-03-08 14:19:00,60.6,23.6,29.62,East,90,2.7,3.6,24,0.00,,---,0.00,VWS V14.01,2013-03-08 20:19:00,
2013-03-08 14:24:00,60.6,23.6,29.62,East,90,4.9,7.8,24,0.00,,---,0.00,VWS V14.01,2013-03-08 20:24:00,
2013-03-08 14:29:00,60.4,23.5,29.62,ESE,112,7.8,7.8,24,0.00,,---,0.00,VWS V14.01,2013-03-08 20:29:00,
2013-03-08 14:34:00,60.4,23.5,29.62,ESE,112,5.6,7.4,24,0.00,,---,0.00,VWS V14.01,2013-03-08 20:34:00,
2013-03-08 14:39:00,60.6,23.6,29.62,ESE,112,2.9,3.6,24,0.00,,---,0.00,VWS V14.01,2013-03-08 20:39:00,
2013-03-08 14:44:00,61.0,24.0,29.62,East,90,6.0,6.0,24,0.00,,---,0.00,VWS V14.01,2013-03-08 20:44:00,
2013-03-08 14:49:00,60.8,23.8,29.59,ESE,112,5.8,9.6,24,0.00,,---,0.00,VWS V14.01,2013-03-08 20:49:00,
2013-03-08 14:54:00,60.8,23.8,29.59,East,90,2.5,8.5,24,0.00,,---,0.00,VWS V14.01,2013-03-08 20:54:00,
2013-03-08 14:59:00,60.6,23.6,29.59,ESE,112,2.9,7.8,24,0.00,,---,0.00,VWS V14.01,2013-03-08 20:59:00,
2013-03-08 15:04:00,60.6,23.6,29.59,ENE,68,3.4,9.6,24,0.00,,---,0.00,VWS V14.01,2013-03-08 21:04:00,
2013-03-08 15:10:00,60.6,23.6,29.59,ENE,68,4.7,4.7,24,0.00,,---,0.00,VWS V14.01,2013-03-08 21:10:00,
2013-03-08 15:15:00,60.6,23.6,29.59,East,90,8.5,8.5,24,0.00,,---,0.00,VWS V14.01,2013-03-08 21:15:00,
2013-03-08 15:20:00,60.4,23.5,29.56,ESE,112,3.8,6.0,24,0.00,,---,0.00,VWS V14.01,2013-03-08 21:20:00,
2013-03-08 15:25:00,60.4,23.5,29.56,ENE,68,2.9,6.0,24,0.00,,---,0.00,VWS V14.01,2013-03-08 21:25:00,
2013-03-08 15:30:00,60.4,23.5,29.56,East,90,3.1,6.3,24,0.00,,---,0.00,VWS V14.01,2013-03-08 21:30:00,
2013-03-08 15:35:00,60.4,23.5,29.56,ESE,112,2.9,7.8,24,0.00,,---,0.00,VWS V14.01,2013-03-08 21:35:00,
2013-03-08 15:40:00,60.4,23.5,29.56,ESE,112,5.6,7.8,24,0.00,,---,0.00,VWS V14.01,2013-03-08 21:40:00,
2013-03-08 15:45:00,60.4,23.5,29.56,ESE,112,3.8,4.0,24,0.00,,---,0.00,VWS V14.01,2013-03-08 21:45:00,
2013-03-08 15:50:00,60.6,21.6,29.59,ESE,112,5.6,10.7,22,0.00,,---,0.00,VWS V14.01,2013-03-08 21:50:00,
2013-03-08 15:55:00,60.4,21.4,29.59,ENE,68,6.3,9.8,22,0.00,,---,0.00,VWS V14.01,2013-03-08 21:55:00,
2013-03-08 16:00:00,60.4,21.4,29.59,ENE,68,5.8,8.7,22,0.00,,---,0.00,VWS V14.01,2013-03-08 22:00:00,
2013-03-08 16:05:00,60.4,21.4,29.56,East,90,4.3,4.5,22,0.00,,---,0.00,VWS V14.01,2013-03-08 22:05:00,
2013-03-08 16:10:00,60.3,21.3,29.56,ESE,112,6.0,6.5,22,0.00,,---,0.00,VWS V14.01,2013-03-08 22:10:00,
2013-03-08 16:15:00,60.1,21.1,29.56,ENE,68,6.3,7.2,22,0.00,,---,0.00,VWS V14.01,2013-03-08 22:15:00,
2013-03-08 16:20:00,60.1,21.1,29.56,East,90,5.4,5.6,22,0.00,,---,0.00,VWS V14.01,2013-03-08 22:20:00,
2013-03-08 16:25:00,60.1,23.2,29.56,East,90,3.4,11.2,24,0.00,,---,0.00,VWS V14.01,2013-03-08 22:25:00,
2013-03-08 16:30:00,60.3,23.4,29.56,East,90,5.6,5.6,24,0.00,,---,0.00,VWS V14.01,2013-03-08 22:30:00,
2013-03-08 16:35:00,60.1,23.2,29.56,ESE,112,5.4,10.5,24,0.00,,---,0.00,VWS V14.01,2013-03-08 22:35:00,
2013-03-08 16:40:00,60.1,23.2,29.56,ESE,112,4.3,6.0,24,0.00,,---,0.00,VWS V14.01,2013-03-08 22:40:00,
2013-03-08 16:45:00,59.9,21.0,29.56,ENE,68,4.0,6.3,22,0.00,,---,0.00,VWS V14.01,2013-03-08 22:45:00,
2013-03-08 16:50:00,59.7,22.9,29.53,ESE,112,5.4,6.9,24,0.00,,---,0.00,VWS V14.01,2013-03-08 22:50:00,
2013-03-08 16:55:00,59.7,20.8,29.53,East,90,4.9,7.2,22,0.00,,---,0.00,VWS V14.01,2013-03-08 22:55:00,
2013-03-08 17:00:00,59.5,22.7,29.53,ESE,112,4.0,7.8,24,0.00,,---,0.00,VWS V14.01,2013-03-08 23:00:00,
2013-03-08 17:06:00,59.4,22.6,29.56,East,90,3.6,7.4,24,0.00,,---,0.00,VWS V14.01,2013-03-08 23:06:00,
2013-03-08 17:11:00,59.4,22.6,29.56,ESE,112,3.8,5.8,24,0.00,,---,0.00,VWS V14.01,2013-03-08 23:11:00,
2013-03-08 17:16:00,59.2,22.4,29.56,East,90,3.4,4.9,24,0.00,,---,0.00,VWS V14.01,2013-03-08 23:16:00,
2013-03-08 17:21:00,59.2,22.4,29.56,East,90,6.5,10.1,24,0.00,,---,0.00,VWS V14.01,2013-03-08 23:21:00,
2013-03-08 17:26:00,59.0,22.3,29.56,ESE,112,3.4,5.6,24,0.00,,---,0.00,VWS V14.01,2013-03-08 23:26:00,
2013-03-08 17:31:00,58.8,22.1,29.53,ENE,68,3.1,3.8,24,0.00,,---,0.00,VWS V14.01,2013-03-08 23:31:00,
2013-03-08 17:36:00,58.6,22.0,29.53,ESE,112,4.7,8.5,24,0.00,,---,0.00,VWS V14.01,2013-03-08 23:36:00,
2013-03-08 17:41:00,58.5,21.8,29.53,East,90,6.5,6.5,24,0.00,,---,0.00,VWS V14.01,2013-03-08 23:41:00,
2013-03-08 17:46:00,58.5,21.8,29.53,ESE,112,3.1,4.5,24,0.00,,---,0.00,VWS V14.01,2013-03-08 23:46:00,
2013-03-08 17:51:00,58.1,21.5,29.53,ESE,112,7.4,8.1,24,0.00,,---,0.00,VWS V14.01,2013-03-08 23:51:00,
2013-03-08 17:56:00,58.1,21.5,29.53,East,90,2.7,6.3,24,0.00,,---,0.00,VWS V14.01,2013-03-08 23:56:00,
2013-03-08 18:01:00,57.9,21.4,29.53,ENE,68,2.9,6.0,24,0.00,,---,0.00,VWS V14.01,2013-03-09 00:01:00,
2013-03-08 18:06:00,57.7,21.2,29.53,East,90,4.3,4.3,24,0.00,,---,0.00,VWS V14.01,2013-03-09 00:06:00,
2013-03-08 18:11:00,57.6,21.1,29.53,ESE,112,2.9,6.0,24,0.00,,---,0.00,VWS V14.01,2013-03-09 00:11:00,
2013-03-08 18:16:00,57.4,20.9,29.56,ESE,112,4.9,6.0,24,0.00,,---,0.00,VWS V14.01,2013-03-09 00:16:00,
2013-03-08 18:21:00,57.2,20.8,29.56,East,90,4.3,6.0,24,0.00,,---,0.00,VWS V14.01,2013-03-09 00:21:00,
2013-03-08 18:26:00,57.2,20.8,29.56,ESE,112,3.1,5.4,24,0.00,,---,0.00,VWS V14.01,2013-03-09 00:26:00,
2013-03-08 18:31:00,57.0,21.6,29.56,ENE,68,6.3,6.3,25,0.00,,---,0.00,VWS V14.01,2013-03-09 00:31:00,
2013-03-08 18:36:00,57.0,21.6,29.56,ENE,68,2.9,8.1,25,0.00,,---,0.00,VWS V14.01,2013-03-09 00:36:00,
2013-03-08 18:41:00,57.0,21.6,29.56,ESE,112,5.4,7.2,25,0.00,,---,0.00,VWS V14.01,2013-03-09 00:41:00,
2013-03-08 18:46:00,56.8,21.4,29.56,East,90,4.0,6.5,25,0.00,,---,0.00,VWS V14.01,2013-03-09 00:46:00,
2013-03-08 18:51:00,56.8,21.4,29.56,ESE,112,6.0,6.0,25,0.00,,---,0.00,VWS V14.01,2013-03-09 00:51:00,
2013-03-08 18:57:00,56.8,21.4,29.56,ESE,112,4.3,7.6,25,0.00,,---,0.00,VWS V14.01,2013-03-09 00:57:00,
2013-03-08 19:02:00,56.7,21.3,29.56,ESE,112,3.8,10.1,25,0.00,,---,0.00,VWS V14.01,2013-03-09 01:02:00,
2013-03-08 19:07:00,56.7,21.3,29.56,ESE,112,6.0,7.8,25,0.00,,---,0.00,VWS V14.01,2013-03-09 01:07:00,
2013-03-08 19:12:00,56.5,21.1,29.56,East,90,4.3,6.0,25,0.00,,---,0.00,VWS V14.01,2013-03-09 01:12:00,
2013-03-08 19:17:00,56.5,21.1,29.59,ENE,68,4.9,7.2,25,0.00,,---,0.00,VWS V14.01,2013-03-09 01:17:00,
2013-03-08 19:22:00,56.3,21.0,29.59,ENE,68,5.6,6.9,25,0.00,,---,0.00,VWS V14.01,2013-03-09 01:22:00,
2013-03-08 19:27:00,56.3,21.0,29.59,ESE,112,3.8,744.7,25,0.00,,---,0.00,VWS V14.01,2013-03-09 01:27:00,
2013-03-08 19:32:00,56.3,21.0,29.59,East,90,6.0,8.1,25,0.00,,---,0.00,VWS V14.01,2013-03-09 01:32:00,
2013-03-08 19:37:00,56.3,21.0,29.59,East,90,5.4,7.2,25,0.00,,---,0.00,VWS V14.01,2013-03-09 01:37:00,
2013-03-08 19:42:00,56.1,20.8,29.59,ESE,112,9.8,9.8,25,0.00,,---,0.00,VWS V14.01,2013-03-09 01:42:00,
2013-03-08 19:47:00,56.1,20.8,29.59,ESE,112,6.5,10.5,25,0.00,,---,0.00,VWS V14.01,2013-03-09 01:47:00,
2013-03-08 19:52:00,56.1,20.8,29.59,ESE,112,3.8,6.5,25,0.00,,---,0.00,VWS V14.01,2013-03-09 01:52:00,
2013-03-08 19:57:00,55.9,20.6,29.59,ENE,68,4.9,6.0,25,0.00,,---,0.00,VWS V14.01,2013-03-09 01:57:00,
2013-03-08 20:02:00,55.8,20.5,29.56,ENE,68,4.3,6.5,25,0.00,,---,0.00,VWS V14.01,2013-03-09 02:02:00,
2013-03-08 20:07:00,55.8,20.5,29.56,SE,135,5.8,9.8,25,0.00,,---,0.00,VWS V14.01,2013-03-09 02:07:00,
2013-03-08 20:12:00,55.6,20.3,29.56,East,90,6.0,7.4,25,0.00,,---,0.00,VWS V14.01,2013-03-09 02:12:00,
2013-03-08 20:17:00,55.2,21.0,29.59,East,90,4.9,12.5,26,0.00,,---,0.00,VWS V14.01,2013-03-09 02:17:00,
2013-03-08 20:22:00,55.0,20.8,29.59,East,90,5.8,7.4,26,0.00,,---,0.00,VWS V14.01,2013-03-09 02:22:00,
2013-03-08 20:27:00,54.5,21.2,29.59,ENE,68,6.3,7.2,27,0.00,,---,0.00,VWS V14.01,2013-03-09 02:27:00,
2013-03-08 20:32:00,54.3,21.1,29.59,ENE,68,4.3,6.5,27,0.00,,---,0.00,VWS V14.01,2013-03-09 02:32:00,
2013-03-08 20:37:00,53.8,21.5,29.59,East,90,6.0,7.6,28,0.00,,---,0.00,VWS V14.01,2013-03-09 02:37:00,
2013-03-08 20:42:00,53.2,23.4,29.59,ENE,68,3.4,5.6,31,0.00,,---,0.00,VWS V14.01,2013-03-09 02:42:00,
2013-03-08 20:47:00,52.7,25.8,29.59,East,90,3.8,6.5,35,0.00,,---,0.00,VWS V14.01,2013-03-09 02:47:00,
2013-03-08 20:53:00,52.2,26.0,29.59,East,90,2.7,5.6,36,0.00,,---,0.00,VWS V14.01,2013-03-09 02:53:00,
2013-03-08 20:58:00,51.8,25.7,29.59,East,90,4.0,6.3,36,0.00,,---,0.00,VWS V14.01,2013-03-09 02:58:00,
2013-03-08 21:03:00,51.6,26.2,29.59,ENE,68,3.8,6.5,37,0.00,,---,0.00,VWS V14.01,2013-03-09 03:03:00,
2013-03-08 21:08:00,51.6,26.2,29.59,East,90,2.9,5.6,37,0.00,,---,0.00,VWS V14.01,2013-03-09 03:08:00,
2013-03-08 21:13:00,51.4,26.0,29.59,ESE,112,5.6,6.3,37,0.00,,---,0.00,VWS V14.01,2013-03-09 03:13:00,
2013-03-08 21:18:00,51.6,26.2,29.59,ENE,68,4.7,7.2,37,0.00,,---,0.00,VWS V14.01,2013-03-09 03:18:00,
2013-03-08 21:23:00,51.6,26.2,29.59,East,90,4.9,7.8,37,0.00,,---,0.00,VWS V14.01,2013-03-09 03:23:00,
2013-03-08 21:28:00,51.8,26.4,29.59,ESE,112,4.0,8.1,37,0.00,,---,0.00,VWS V14.01,2013-03-09 03:28:00,
2013-03-08 21:33:00,51.8,26.4,29.56,ENE,68,3.4,8.7,37,0.00,,---,0.00,VWS V14.01,2013-03-09 03:33:00,
2013-03-08 21:38:00,51.8,26.4,29.56,ESE,112,6.3,6.5,37,0.00,,---,0.00,VWS V14.01,2013-03-09 03:38:00,
2013-03-08 21:43:00,51.8,25.7,29.56,ESE,112,5.4,8.7,36,0.00,,---,0.00,VWS V14.01,2013-03-09 03:43:00,
2013-03-08 21:48:00,52.0,25.9,29.59,ESE,112,2.5,7.8,36,0.00,,---,0.00,VWS V14.01,2013-03-09 03:48:00,
2013-03-08 21:53:00,51.8,25.7,29.59,ESE,112,4.3,7.8,36,0.00,,---,0.00,VWS V14.01,2013-03-09 03:53:00,
2013-03-08 21:58:00,51.8,25.7,29.59,ESE,112,8.1,8.1,36,0.00,,---,0.00,VWS V14.01,2013-03-09 03:58:00,
2013-03-08 22:03:00,51.8,25.7,29.59,ESE,112,4.7,9.6,36,0.00,,---,0.00,VWS V14.01,2013-03-09 04:03:00,
2013-03-08 22:08:00,51.8,25.7,29.59,East,90,8.5,8.5,36,0.00,,---,0.00,VWS V14.01,2013-03-09 04:08:00,
2013-03-08 22:13:00,52.0,25.9,29.59,ENE,68,4.9,8.1,36,0.00,,---,0.00,VWS V14.01,2013-03-09 04:13:00,
2013-03-08 22:18:00,52.0,25.9,29.56,ESE,112,5.8,10.3,36,0.00,,---,0.00,VWS V14.01,2013-03-09 04:18:00,
2013-03-08 22:23:00,52.0,25.9,29.56,ESE,112,3.8,9.6,36,0.00,,---,0.00,VWS V14.01,2013-03-09 04:23:00,
2013-03-08 22:28:00,52.0,25.9,29.56,ESE,112,4.0,9.8,36,0.00,,---,0.00,VWS V14.01,2013-03-09 04:28:00,
2013-03-08 22:33:00,52.0,25.9,29.56,East,90,3.4,8.7,36,0.00,,---,0.00,VWS V14.01,2013-03-09 04:33:00,
2013-03-08 22:38:00,52.0,25.9,29.56,ESE,112,3.4,5.6,36,0.00,,---,0.00,VWS V14.01,2013-03-09 04:38:00,
2013-03-08 22:43:00,51.8,25.7,29.56,ENE,68,2.7,5.6,36,0.00,,---,0.00,VWS V14.01,2013-03-09 04:43:00,
2013-03-08 22:48:00,51.8,25.7,29.53,ENE,68,4.3,6.9,36,0.00,,---,0.00,VWS V14.01,2013-03-09 04:48:00,
2013-03-08 22:53:00,51.8,25.7,29.53,East,90,4.0,7.6,36,0.00,,---,0.00,VWS V14.01,2013-03-09 04:53:00,
2013-03-08 22:58:00,51.8,25.7,29.53,ENE,68,6.0,7.4,36,0.00,,---,0.00,VWS V14.01,2013-03-09 04:58:00,
2013-03-08 23:00:00,51.8,25.7,29.53,ESE,112,4.3,4.9,36,0.00,,---,0.00,VWS V14.01,2013-03-09 05:00:00,
2013-03-08 23:02:00,51.8,25.7,29.56,ENE,68,2.7,6.3,36,0.00,,---,0.00,VWS V14.01,2013-03-09 05:02:00,
2013-03-08 23:03:00,51.6,26.2,29.56,East,90,6.5,6.5,37,0.00,,---,0.00,VWS V14.01,2013-03-09 05:03:00,
2013-03-08 23:08:00,51.6,26.2,29.56,East,90,2.9,6.5,37,0.00,,---,0.00,VWS V14.01,2013-03-09 05:08:00,
2013-03-08 23:10:00,51.6,26.2,29.56,ESE,112,3.6,4.9,37,0.00,,---,0.00,VWS V14.01,2013-03-09 05:10:00,
2013-03-08 23:15:00,51.6,26.2,29.56,ESE,112,3.1,3.6,37,0.00,,---,0.00,VWS V14.01,2013-03-09 05:15:00,
2013-03-08 23:20:00,51.4,26.0,29.56,ESE,112,3.4,4.7,37,0.00,,---,0.00,VWS V14.01,2013-03-09 05:20:00,
2013-03-08 23:25:00,51.4,26.0,29.56,ESE,112,3.1,3.1,37,0.00,,---,0.00,VWS V14.01,2013-03-09 05:25:00,
2013-03-08 23:30:00,51.3,25.9,29.56,North,0,1.1,1.1,37,0.00,,---,0.00,VWS V14.01,2013-03-09 05:30:00,
2013-03-08 23:35:00,51.1,25.7,29.56,NNE,22,1.1,1.6,37,0.00,,---,0.00,VWS V14.01,2013-03-09 05:35:00,
2013-03-08 23:40:00,50.9,26.2,29.56,SSW,202,1.3,2.0,38,0.00,,---,0.00,VWS V14.01,2013-03-09 05:40:00,
2013-03-08 23:45:00,50.9,25.6,29.56,East,90,1.1,2.2,37,0.00,,---,0.00,VWS V14.01,2013-03-09 05:45:00,
2013-03-08 23:50:00,50.9,25.6,29.56,ESE,112,1.1,3.4,37,0.00,,---,0.00,VWS V14.01,2013-03-09 05:50:00,
2013-03-08 23:55:00,50.9,26.2,29.56,SE,135,0.0,2.2,38,0.00,,---,0.00,VWS V14.01,2013-03-09 05:55:00,